GW1404 Weather Reports


Display with metric or nautical units.
time (UTC)temp
F
wind
direction
speed
MPH
gust
MPH
rain 1hr
in
rain 24hr
in
rain mn
in
humidity
%
barometer
mb
20260509173542 82 31 0.0 4.0 0.00 0.00 0.00 68 1012.0
20260509173116 82 0 0.0 4.0 0.00 0.00 0.00 71 1011.9
20260509172545 82 57 0.0 4.0 0.00 0.00 0.00 70 1012.0
20260509172044 82 91 1.0 4.0 0.00 0.00 0.00 72 1012.1
20260509171549 82 0 0.0 5.0 0.00 0.00 0.00 72 1012.1
20260509171042 82 0 0.0 5.0 0.00 0.00 0.00 69 1012.1
20260509170546 81 62 0.0 6.0 0.00 0.00 0.00 69 1012.2
20260509170100 81 0 0.0 6.0 0.00 0.00 0.00 71 1012.2
20260509165542 80 0 1.0 6.0 0.00 0.00 0.00 72 1012.3
20260509165043 80 0 0.0 3.0 0.00 0.00 0.00 74 1012.4
20260509164558 80 77 0.0 1.0 0.00 0.00 0.00 75 1012.4
20260509164043 80 0 0.0 3.0 0.00 0.00 0.00 76 1012.5
20260509163542 80 0 0.0 3.0 0.00 0.00 0.00 74 1012.6
20260509163052 80 0 0.0 3.0 0.00 0.00 0.00 72 1012.6
20260509162543 80 0 0.0 3.0 0.00 0.00 0.00 76 1012.7
20260509162042 80 0 0.0 3.0 0.00 0.00 0.00 76 1012.6
20260509161549 80 0 0.0 0.0 0.00 0.00 0.00 75 1012.6
20260509161043 79 0 0.0 0.0 0.00 0.00 0.00 76 1012.6
20260509160543 79 0 0.0 1.0 0.00 0.00 0.00 78 1012.4
20260509160054 78 0 0.0 1.0 0.00 0.00 0.00 80 1012.3
20260509155543 78 0 0.0 11.0 0.00 0.00 0.00 81 1012.3
20260509155042 77 0 0.0 11.0 0.00 0.00 0.00 82 1012.3
20260509154553 77 347 0.0 6.0 0.00 0.00 0.00 82 1012.4
20260509154043 77 66 1.0 6.0 0.00 0.00 0.00 83 1012.3
20260509153546 77 28 0.0 9.0 0.00 0.00 0.00 83 1012.3
20260509153053 76 0 1.0 9.0 0.00 0.00 0.00 84 1012.2
20260509152542 76 0 4.0 9.0 0.00 0.00 0.00 83 1012.2
20260509152045 75 352 1.0 8.0 0.00 0.00 0.00 85 1012.2
20260509151610 75 33 3.0 8.0 0.00 0.00 0.00 84 1012.2
20260509151045 76 38 2.0 7.0 0.00 0.00 0.00 84 1012.3
20260509150542 76 0 0.0 8.0 0.00 0.00 0.00 84 1012.3
20260509150051 76 0 2.0 8.0 0.00 0.00 0.00 84 1012.3
20260509145545 77 352 0.0 2.0 0.00 0.00 0.00 84 1012.2
20260509145045 77 0 0.0 2.0 0.00 0.00 0.00 84 1012.1
20260509144549 77 0 0.0 1.0 0.00 0.00 0.00 84 1012.0
20260509144047 77 0 0.0 1.0 0.00 0.00 0.00 85 1011.9
20260509143545 76 0 0.0 1.0 0.00 0.00 0.00 85 1011.8
20260509143058 76 0 0.0 2.0 0.00 0.00 0.00 85 1011.9
20260509142543 76 0 0.0 2.0 0.00 0.00 0.00 86 1011.7
20260509142045 76 0 0.0 2.0 0.00 0.00 0.00 87 1011.6
20260509141551 75 0 0.0 2.0 0.00 0.00 0.00 86 1011.7
20260509141047 76 0 0.0 1.0 0.00 0.00 0.00 87 1011.8
20260509140545 75 0 0.0 1.0 0.00 0.00 0.00 88 1011.3
20260509140054 75 0 0.0 0.0 0.00 0.00 0.00 89 1011.1
20260509135547 74 0 0.0 0.0 0.00 0.00 0.00 91 1011.5
20260509135048 74 0 0.0 0.0 0.00 0.00 0.00 92 1011.4
20260509134554 74 0 0.0 2.0 0.00 0.00 0.00 93 1011.2
20260509134045 73 0 0.0 4.0 0.00 0.00 0.00 94 1010.9
20260509133545 73 0 0.0 6.0 0.00 0.00 0.00 94 1010.5
20260509133050 72 211 0.0 6.0 0.00 0.00 0.00 95 1010.4
20260509132543 72 223 0.0 3.0 0.00 0.00 0.00 95 1010.3
20260509132044 71 0 0.0 6.0 0.00 0.00 0.00 95 1010.3
20260509131602 71 0 0.0 6.0 0.00 0.00 0.00 95 1010.3
20260509131045 71 216 1.0 5.0 0.00 0.00 0.00 96 1010.2
20260509130545 71 233 0.0 5.0 0.00 0.00 0.00 96 1010.2
20260509130124 70 227 1.0 5.0 0.00 0.00 0.00 96 1010.1
20260509125541 70 0 0.0 5.0 0.00 0.00 0.00 96 1010.2
20260509125045 70 0 1.0 5.0 0.00 0.00 0.00 96 1010.1
20260509124550 70 221 1.0 5.0 0.00 0.00 0.00 96 1009.9
20260509124041 70 224 2.0 5.0 0.00 0.00 0.00 96 1010.1
20260509123548 70 0 0.0 6.0 0.00 0.00 0.00 96 1010.2
20260509123120 70 246 1.0 6.0 0.00 0.00 0.00 96 1010.1
20260509122545 70 0 0.0 3.0 0.00 0.00 0.00 96 1010.2
20260509122044 69 0 0.0 1.0 0.00 0.00 0.00 96 1010.4
20260509121552 69 0 0.0 1.0 0.00 0.00 0.00 96 1010.5
20260509121048 69 0 0.0 1.0 0.00 0.00 0.00 96 1010.7
20260509120542 69 0 0.0 1.0 0.00 0.00 0.00 96 1010.8
20260509120052 69 0 0.0 1.0 0.00 0.00 0.00 95 1010.9
20260509115544 69 0 0.0 1.0 0.00 0.00 0.00 95 1010.9
20260509115044 69 0 0.0 1.0 0.00 0.00 0.00 95 1011.0
20260509114624 69 0 0.0 0.0 0.00 0.00 0.00 95 1010.9
20260509114041 69 0 0.0 0.0 0.00 0.00 0.00 95 1011.1
20260509113544 70 0 0.0 0.0 0.00 0.00 0.00 95 1011.2
20260509113122 70 0 0.0 3.0 0.00 0.00 0.00 95 1011.5
20260509112547 70 0 0.0 3.0 0.00 0.00 0.00 95 1011.4
20260509112041 70 0 0.0 1.0 0.00 0.00 0.00 95 1011.9
20260509111552 70 0 0.0 1.0 0.00 0.00 0.00 95 1012.1
20260509111044 70 0 0.0 0.0 0.00 0.00 0.00 95 1012.2
20260509110544 70 0 0.0 0.0 0.00 0.00 0.00 95 1012.2
20260509110058 70 0 0.0 0.0 0.00 0.00 0.00 95 1012.3
20260509105544 70 0 0.0 2.0 0.00 0.07 0.00 95 1012.3
20260509105045 70 0 0.0 2.0 0.00 0.07 0.00 95 1012.1
20260509104553 70 0 0.0 0.0 0.00 0.07 0.00 95 1011.9
20260509104047 71 0 0.0 0.0 0.00 0.07 0.00 95 1012.2
20260509103544 71 0 0.0 1.0 0.00 0.07 0.00 95 1012.4
20260509103055 71 0 0.0 1.0 0.00 0.07 0.00 95 1012.4
20260509102544 70 0 0.0 1.0 0.00 0.07 0.00 95 1012.4
20260509102043 70 0 0.0 0.0 0.00 0.07 0.00 95 1012.3
20260509101600 70 0 0.0 0.0 0.00 0.07 0.00 95 1012.2
20260509101042 70 0 0.0 0.0 0.00 0.07 0.00 95 1012.1
20260509100545 70 0 0.0 0.0 0.00 0.07 0.00 95 1012.1
20260509100051 70 0 0.0 0.0 0.00 0.07 0.00 95 1011.9
20260509095545 71 0 0.0 0.0 0.00 0.07 0.00 95 1012.0
20260509095041 71 0 0.0 0.0 0.00 0.07 0.00 95 1012.0
20260509094603 71 0 0.0 0.0 0.00 0.07 0.00 95 1012.0
20260509094044 70 0 0.0 0.0 0.00 0.07 0.00 95 1011.8
20260509093544 70 0 0.0 0.0 0.00 0.07 0.00 95 1011.7
20260509093048 71 0 0.0 0.0 0.00 0.07 0.00 95 1011.7
20260509092545 71 0 0.0 0.0 0.00 0.07 0.00 95 1011.9
20260509092041 71 0 0.0 0.0 0.00 0.07 0.00 94 1011.7
20260509091555 71 0 0.0 0.0 0.00 0.07 0.00 95 1011.8
20260509091044 71 0 0.0 0.0 0.00 0.07 0.00 95 1011.9
20260509090541 71 0 0.0 0.0 0.00 0.07 0.00 95 1012.0
20260509090052 71 0 0.0 0.0 0.00 0.07 0.00 94 1012.1
20260509085542 71 0 0.0 0.0 0.00 0.07 0.00 94 1012.0
20260509085045 71 0 0.0 0.0 0.00 0.07 0.00 95 1011.8
20260509084603 71 0 0.0 0.0 0.00 0.07 0.00 94 1011.8
20260509084045 71 0 0.0 0.0 0.00 0.07 0.00 94 1011.6
20260509083545 70 0 0.0 0.0 0.00 0.07 0.00 94 1011.4
20260509083055 71 0 0.0 0.0 0.00 0.07 0.00 94 1011.2
20260509082544 71 0 0.0 0.0 0.00 0.07 0.00 94 1011.2
20260509082045 71 0 0.0 0.0 0.00 0.07 0.00 94 1011.3
20260509081557 71 0 0.0 0.0 0.00 0.07 0.00 94 1011.6
20260509081044 71 0 0.0 0.0 0.00 0.07 0.00 94 1011.7
20260509080542 71 0 0.0 0.0 0.00 0.07 0.00 94 1011.9
20260509080059 71 0 0.0 0.0 0.00 0.07 0.00 94 1011.8
20260509075544 71 0 0.0 0.0 0.00 0.07 0.00 94 1011.8
20260509075044 71 0 0.0 0.0 0.00 0.07 0.00 94 1011.9
20260509074555 70 0 0.0 0.0 0.00 0.07 0.00 94 1012.0
20260509074046 70 0 0.0 0.0 0.00 0.07 0.00 94 1012.2
20260509073542 70 0 0.0 0.0 0.00 0.07 0.00 94 1012.4
20260509073050 70 0 0.0 0.0 0.00 0.07 0.00 93 1012.2
20260509072548 70 0 0.0 0.0 0.00 0.07 0.00 93 1012.2
20260509072045 70 0 0.0 0.0 0.00 0.07 0.00 93 1012.0
20260509071558 71 0 0.0 0.0 0.00 0.07 0.00 93 1011.8
20260509071044 71 0 0.0 0.0 0.00 0.07 0.00 94 1011.8
20260509070548 71 0 0.0 0.0 0.00 0.07 0.00 94 1011.9
20260509070054 71 0 0.0 1.0 0.00 0.07 0.00 94 1011.8
20260509065544 71 0 0.0 1.0 0.00 0.07 0.00 94 1011.9
20260509065044 70 0 0.0 0.0 0.00 0.07 0.00 94 1011.9
20260509064559 70 0 0.0 0.0 0.00 0.07 0.00 93 1012.1
20260509064045 70 0 0.0 0.0 0.00 0.07 0.00 93 1012.2
20260509063546 71 0 0.0 0.0 0.00 0.07 0.00 93 1012.2
20260509063055 71 0 0.0 0.0 0.00 0.07 0.00 93 1011.9
20260509062550 71 0 0.0 0.0 0.00 0.07 0.00 93 1011.8
20260509062046 71 0 0.0 0.0 0.00 0.07 0.00 93 1011.9
20260509061601 71 0 0.0 0.0 0.00 0.07 0.00 93 1011.9
20260509061045 71 0 0.0 0.0 0.00 0.07 0.00 93 1012.1
20260509060545 71 0 0.0 0.0 0.00 0.07 0.00 93 1012.1
20260509060053 71 0 0.0 0.0 0.00 0.07 0.00 94 1011.7
20260509055544 71 0 0.0 0.0 0.00 0.07 0.00 94 1011.4
20260509055040 70 0 0.0 0.0 0.00 0.07 0.00 94 1011.4
20260509054608 70 0 0.0 0.0 0.00 0.07 0.00 94 1011.4
20260509054045 70 0 0.0 0.0 0.00 0.07 0.00 93 1011.2
20260509053545 70 0 0.0 0.0 0.00 0.07 0.00 93 1011.1
20260509053055 70 0 0.0 0.0 0.00 0.07 0.00 93 1011.1
20260509052546 70 0 0.0 0.0 0.00 0.07 0.00 93 1011.0
20260509052044 70 0 0.0 0.0 0.00 0.07 0.00 93 1011.0
20260509051550 70 0 0.0 0.0 0.00 0.07 0.00 93 1011.2
20260509051044 70 0 0.0 0.0 0.00 0.07 0.00 93 1011.1
20260509050544 70 0 0.0 0.0 0.00 0.07 0.00 94 1011.2
20260509050053 69 0 0.0 0.0 0.00 0.07 0.00 93 1011.2
20260509045544 69 0 0.0 0.0 0.00 0.07 0.07 93 1011.2
20260509045044 69 0 0.0 0.0 0.00 0.07 0.07 93 1011.3
20260509044607 69 0 0.0 0.0 0.00 0.07 0.07 92 1011.3
20260509044045 69 0 0.0 0.0 0.00 0.07 0.07 92 1011.3
20260509043547 70 0 0.0 0.0 0.00 0.07 0.07 92 1011.2
20260509043048 70 0 0.0 0.0 0.00 0.07 0.07 92 1011.2
20260509042544 70 0 0.0 0.0 0.00 0.07 0.07 92 1011.1
20260509042045 70 0 0.0 0.0 0.00 0.07 0.07 92 1011.1
20260509041549 70 0 0.0 0.0 0.00 0.07 0.07 92 1011.1
20260509041045 70 0 0.0 0.0 0.00 0.07 0.07 91 1011.0
20260509040548 70 0 0.0 0.0 0.00 0.07 0.07 92 1010.9
20260509040051 70 0 0.0 0.0 0.00 0.07 0.07 91 1010.9
20260509035548 70 0 0.0 0.0 0.00 0.07 0.07 91 1010.9
20260509035045 70 0 0.0 0.0 0.00 0.07 0.07 91 1011.0
20260509034553 71 0 0.0 0.0 0.00 0.07 0.07 90 1010.8
20260509034044 71 0 0.0 0.0 0.00 0.07 0.07 90 1010.8
20260509033544 71 0 0.0 0.0 0.00 0.07 0.07 91 1010.6
20260509033048 71 0 0.0 0.0 0.00 0.07 0.07 90 1010.6
20260509032547 71 0 0.0 0.0 0.00 0.07 0.07 90 1010.6
20260509032043 71 0 0.0 0.0 0.00 0.07 0.07 90 1010.4
20260509031607 71 0 0.0 0.0 0.00 0.07 0.07 90 1010.6
20260509031048 71 0 0.0 0.0 0.00 0.07 0.07 90 1010.2
20260509030547 71 0 0.0 0.0 0.00 0.07 0.07 90 1010.1
20260509030057 71 0 0.0 0.0 0.00 0.07 0.07 90 1010.1
20260509025546 71 0 0.0 0.0 0.00 0.07 0.07 90 1010.1
20260509025049 71 0 0.0 0.0 0.00 0.07 0.07 90 1010.0
20260509024556 71 0 0.0 0.0 0.00 0.07 0.07 90 1009.9
20260509024047 71 0 0.0 0.0 0.00 0.07 0.07 89 1009.9
20260509023548 72 0 0.0 0.0 0.00 0.07 0.07 89 1009.8
20260509023116 72 0 0.0 0.0 0.00 0.07 0.07 88 1009.8
20260509022548 72 0 0.0 0.0 0.00 0.07 0.07 88 1009.9
20260509022050 72 0 0.0 0.0 0.00 0.07 0.07 88 1009.9
20260509021557 72 0 0.0 0.0 0.00 0.07 0.07 88 1009.8
20260509021050 72 0 0.0 0.0 0.00 0.07 0.07 88 1009.7
20260509020549 72 0 0.0 0.0 0.00 0.07 0.07 88 1009.7
20260509020053 72 0 0.0 0.0 0.00 0.07 0.07 88 1009.6
20260509015547 73 0 0.0 0.0 0.00 0.07 0.07 88 1009.7
20260509015049 73 0 0.0 0.0 0.00 0.07 0.07 87 1009.6
20260509014553 73 0 0.0 0.0 0.00 0.07 0.07 87 1009.8
20260509014047 73 0 0.0 0.0 0.00 0.07 0.07 87 1009.6
20260509013548 73 0 0.0 0.0 0.00 0.07 0.07 87 1009.7
20260509013055 73 0 0.0 0.0 0.00 0.07 0.07 87 1009.7
20260509012547 73 0 0.0 0.0 0.00 0.07 0.07 87 1009.6
20260509012047 73 0 0.0 0.0 0.00 0.07 0.07 87 1009.5
20260509011558 73 0 0.0 0.0 0.00 0.07 0.07 87 1009.6
20260509011044 73 0 0.0 0.0 0.00 0.07 0.07 86 1009.7
20260509010546 73 0 0.0 0.0 0.00 0.07 0.07 86 1009.6
20260509010057 73 0 0.0 0.0 0.00 0.07 0.07 86 1009.6
20260509005547 73 0 0.0 0.0 0.00 0.07 0.07 86 1009.5
20260509005050 73 0 0.0 0.0 0.00 0.07 0.07 86 1009.6
20260509004555 73 0 0.0 0.0 0.00 0.07 0.07 86 1009.5
20260509004047 73 0 0.0 0.0 0.00 0.07 0.07 86 1009.5
20260509003547 73 0 0.0 1.0 0.00 0.07 0.07 86 1009.5
20260509003101 73 0 0.0 1.0 0.00 0.07 0.07 86 1009.4
20260509002546 74 0 0.0 1.0 0.00 0.07 0.07 86 1009.5
20260509002044 74 0 0.0 0.0 0.00 0.07 0.07 86 1009.5
20260509001550 74 0 0.0 1.0 0.00 0.07 0.07 86 1009.6
20260509001046 74 0 0.0 1.0 0.00 0.07 0.07 85 1009.7
20260509000549 74 0 0.0 0.0 0.00 0.07 0.07 85 1009.8
20260509000053 74 0 0.0 0.0 0.00 0.07 0.07 85 1009.7
20260508235543 74 0 0.0 0.0 0.00 0.07 0.07 85 1009.8
20260508235043 74 0 0.0 0.0 0.00 0.07 0.07 84 1009.8
20260508234556 74 0 0.0 0.0 0.00 0.07 0.07 84 1009.9
20260508234043 74 0 0.0 2.0 0.00 0.07 0.07 84 1009.9
20260508233543 74 0 0.0 2.0 0.00 0.07 0.07 84 1009.8
20260508233054 74 0 0.0 3.0 0.00 0.07 0.07 84 1009.8
20260508232543 74 0 0.0 3.0 0.00 0.07 0.07 84 1010.0
20260508232048 74 0 0.0 1.0 0.00 0.07 0.07 83 1010.0
20260508231601 74 0 0.0 1.0 0.00 0.07 0.07 84 1009.9
20260508231044 74 0 0.0 3.0 0.00 0.07 0.07 84 1010.0
20260508230543 74 0 0.0 3.0 0.00 0.07 0.07 83 1009.9
20260508230125 74 0 0.0 1.0 0.00 0.07 0.07 83 1010.0
20260508225543 74 0 0.0 2.0 0.00 0.07 0.07 83 1010.2
20260508225046 74 0 0.0 6.0 0.00 0.07 0.07 83 1010.2
20260508224602 74 0 0.0 6.0 0.00 0.07 0.07 83 1010.2
20260508224047 74 0 0.0 4.0 0.00 0.07 0.07 83 1010.2
20260508223543 74 0 0.0 4.0 0.00 0.07 0.07 83 1010.2
20260508223047 74 82 0.0 4.0 0.00 0.07 0.07 82 1010.1
20260508222541 74 0 0.0 1.0 0.00 0.07 0.07 84 1010.3
20260508222049 73 0 0.0 6.0 0.00 0.07 0.07 83 1010.3
20260508221548 73 0 0.0 6.0 0.00 0.07 0.07 83 1010.4
20260508221043 73 0 0.0 3.0 0.00 0.07 0.07 83 1010.4
20260508220543 73 0 0.0 3.0 0.00 0.07 0.07 83 1010.4
20260508220117 73 0 0.0 4.0 0.00 0.07 0.07 84 1010.3
20260508215543 73 0 0.0 4.0 0.00 0.07 0.07 85 1010.4
20260508215043 73 101 0.0 4.0 0.00 0.07 0.07 85 1010.4
20260508214553 72 0 0.0 3.0 0.00 0.07 0.07 85 1010.5
20260508214043 72 0 0.0 3.0 0.00 0.07 0.07 85 1010.6
20260508213546 72 0 0.0 3.0 0.00 0.07 0.07 84 1010.7
20260508213053 72 0 0.0 6.0 0.00 0.07 0.07 85 1010.8
20260508212543 72 52 1.0 6.0 0.00 0.07 0.07 86 1010.6
20260508212042 72 0 1.0 6.0 0.00 0.07 0.07 85 1010.8
20260508211551 72 0 0.0 3.0 0.00 0.07 0.07 85 1011.0
20260508211046 72 0 0.0 3.0 0.00 0.07 0.07 85 1010.9
20260508210545 72 0 0.0 1.0 0.00 0.07 0.07 85 1011.1
20260508210051 71 0 0.0 4.0 0.00 0.07 0.07 86 1011.1
20260508205543 71 0 0.0 4.0 0.00 0.07 0.07 86 1011.1
20260508205044 71 0 0.0 3.0 0.00 0.07 0.07 85 1011.2
20260508204602 71 0 0.0 3.0 0.00 0.07 0.07 86 1011.3
20260508204046 70 106 0.0 1.0 0.00 0.07 0.07 87 1011.4
20260508203543 70 0 0.0 6.0 0.00 0.07 0.07 87 1011.6
20260508203049 70 0 0.0 6.0 0.00 0.07 0.07 87 1011.7
20260508202544 70 0 0.0 4.0 0.00 0.07 0.07 87 1011.7
20260508202048 70 0 0.0 6.0 0.00 0.07 0.07 88 1011.7
20260508201553 69 0 0.0 6.0 0.00 0.07 0.07 89 1011.7
20260508201043 69 0 0.0 4.0 0.00 0.07 0.07 89 1011.8
20260508200543 69 0 0.0 3.0 0.00 0.07 0.07 88 1011.9
20260508200052 68 0 0.0 2.0 0.00 0.07 0.07 88 1012.1
20260508195544 68 0 0.0 3.0 0.00 0.07 0.07 88 1012.1
20260508195044 68 0 0.0 6.0 0.00 0.07 0.07 88 1012.2
20260508194546 68 105 0.0 6.0 0.00 0.07 0.07 88 1012.2
20260508194044 69 101 0.0 4.0 0.00 0.07 0.07 88 1012.1
20260508193545 69 96 0.0 4.0 0.00 0.07 0.07 88 1012.1
20260508193057 69 100 0.0 4.0 0.00 0.07 0.07 88 1012.2
20260508192545 69 49 0.0 4.0 0.00 0.07 0.07 88 1012.4
20260508192043 68 0 0.0 4.0 0.00 0.07 0.07 88 1012.3
20260508191549 68 0 0.0 4.0 0.00 0.07 0.07 88 1012.3
20260508191042 68 0 0.0 4.0 0.00 0.07 0.07 88 1012.3
20260508190543 68 107 0.0 5.0 0.00 0.07 0.07 88 1012.4
20260508190104 68 84 0.0 5.0 0.00 0.07 0.07 88 1012.5
20260508185543 68 0 0.0 4.0 0.00 0.07 0.07 88 1012.6
20260508185046 68 0 0.0 4.0 0.00 0.07 0.07 87 1012.7
20260508184554 68 0 0.0 4.0 0.00 0.07 0.07 87 1012.7
20260508184045 68 0 0.0 3.0 0.00 0.07 0.07 87 1012.7
20260508183545 68 0 0.0 3.0 0.00 0.07 0.07 87 1012.8
20260508183048 68 0 0.0 3.0 0.00 0.07 0.07 87 1012.9
20260508182544 68 0 0.0 3.0 0.00 0.07 0.07 87 1013.0
20260508182043 68 0 0.0 3.0 0.00 0.07 0.07 86 1013.0
20260508181605 68 0 0.0 5.0 0.00 0.07 0.07 86 1013.2
20260508181043 68 0 0.0 5.0 0.00 0.07 0.07 86 1013.2
20260508180543 68 0 0.0 3.0 0.00 0.07 0.07 86 1013.3
20260508180103 68 0 0.0 3.0 0.00 0.07 0.07 86 1013.3
20260508175547 68 0 0.0 4.0 0.00 0.07 0.07 87 1013.3
20260508175048 67 0 0.0 4.0 0.00 0.07 0.07 86 1013.3
20260508174602 67 0 0.0 4.0 0.00 0.07 0.07 86 1013.3
20260508174051 67 0 0.0 4.0 0.00 0.07 0.07 86 1013.4